When you browse on this site, cookies collect data to enhance your experience and personalize the content and advertising you see.
Visit our Privacy Policy to learn more. By continuing to use the site, you agree to this use of cookies and data.
  • In Spain
  • List of Countries
  • For 7 days
  • Water Temperature
  • Satellite Maps
  • Weather Map
  • Weather Widgets
  • user-avatar
    Login

    Hourly Weather Santa Fe

    Today, 23 July, Tuesday

    Time Temperature Precipitation Wind Pressure Humidity
    00:00 +12°C° 0 mm 5 mps 764 mmHg 47%
    01:00 +12°C° 0 mm 5 mps 764 mmHg 48%
    02:00 +12°C° 0 mm 5 mps 765 mmHg 48%
    03:00 +10°C° 0 mm 5 mps 765 mmHg 49%
    04:00 +10°C° 0 mm 5 mps 765 mmHg 51%
    05:00 +10°C° 0 mm 5 mps 764 mmHg 52%
    06:00 +10°C° 0 mm 5 mps 765 mmHg 53%
    07:00 +10°C° 0 mm 5 mps 765 mmHg 54%
    08:00 +10°C° 0 mm 5 mps 765 mmHg 56%
    09:00 +10°C° 0 mm 5 mps 765 mmHg 57%
    10:00 +10°C° 0 mm 5 mps 766 mmHg 58%
    11:00 +10°C° 0 mm 5 mps 766 mmHg 59%
    12:00 +10°C° 0 mm 5 mps 766 mmHg 60%
    13:00 +10°C° 0 mm 6 mps 766 mmHg 62%
    14:00 +10°C° 0 mm 6 mps 766 mmHg 64%
    15:00 +9°C° 0 mm 6 mps 766 mmHg 65%
    16:00 +9°C° 0 mm 7 mps 766 mmHg 66%
    17:00 +9°C° 0 mm 7 mps 766 mmHg 67%
    18:00 +9°C° 0 mm 7 mps 767 mmHg 68%
    19:00 +8°C° 0 mm 7 mps 767 mmHg 70%
    20:00 +8°C° 0 mm 7 mps 768 mmHg 72%
    21:00 +8°C° 0 mm 7 mps 768 mmHg 70%
    22:00 +8°C° 0 mm 7 mps 768 mmHg 68%
    23:00 +8°C° 0 mm 6 mps 768 mmHg 67%

    Tomorrow, 24 July, Wednesday

    Time Temperature Precipitation Wind Pressure Humidity
    00:00 +8°C° 0 mm 6 mps 769 mmHg 69%
    01:00 +8°C° 0 mm 6 mps 769 mmHg 71%
    02:00 +7°C° 0 mm 5 mps 769 mmHg 73%
    03:00 +7°C° 0.1 mm 5 mps 769 mmHg 73%
    04:00 +7°C° 0.1 mm 5 mps 769 mmHg 73%
    05:00 +7°C° 0.1 mm 5 mps 769 mmHg 73%
    06:00 +7°C° 0 mm 5 mps 770 mmHg 71%
    07:00 +7°C° 0 mm 5 mps 770 mmHg 70%
    08:00 +7°C° 0 mm 5 mps 771 mmHg 68%
    09:00 +8°C° 0 mm 5 mps 771 mmHg 67%
    10:00 +8°C° 0 mm 5 mps 771 mmHg 65%
    11:00 +8°C° 0 mm 5 mps 771 mmHg 63%
    12:00 +8°C° 0 mm 4 mps 770 mmHg 61%
    13:00 +10°C° 0 mm 4 mps 770 mmHg 60%
    14:00 +10°C° 0 mm 4 mps 770 mmHg 58%
    15:00 +10°C° 0 mm 3 mps 770 mmHg 58%
    16:00 +10°C° 0 mm 3 mps 770 mmHg 59%
    17:00 +9°C° 0 mm 3 mps 769 mmHg 59%
    18:00 +9°C° 0 mm 3 mps 769 mmHg 59%
    19:00 +9°C° 0 mm 3 mps 769 mmHg 60%
    20:00 +9°C° 0 mm 2 mps 769 mmHg 60%
    21:00 +9°C° 0 mm 3 mps 769 mmHg 61%
    22:00 +9°C° 0 mm 3 mps 769 mmHg 62%
    23:00 +9°C° 0 mm 3 mps 769 mmHg 62%

    Day after tomorrow, 25 July, Thursday

    Time Temperature Precipitation Wind Pressure Humidity
    00:00 +9°C° 0.2 mm 3 mps 768 mmHg 66%
    01:00 +9°C° 0.2 mm 3 mps 768 mmHg 71%
    02:00 +8°C° 0.2 mm 3 mps 768 mmHg 75%
    03:00 +8°C° 1.2 mm 3 mps 767 mmHg 80%
    04:00 +7°C° 1.2 mm 4 mps 767 mmHg 84%
    05:00 +6°C° 1.2 mm 4 mps 767 mmHg 89%
    06:00 +6°C° 1.4 mm 4 mps 767 mmHg 90%
    07:00 +6°C° 1.4 mm 5 mps 767 mmHg 90%
    08:00 +6°C° 1.4 mm 5 mps 767 mmHg 91%
    09:00 +7°C° 0.3 mm 5 mps 766 mmHg 91%
    10:00 +7°C° 0.3 mm 4 mps 766 mmHg 91%
    11:00 +7°C° 0.3 mm 4 mps 766 mmHg 90%
    12:00 +7°C° 1.2 mm 4 mps 765 mmHg 91%
    13:00 +8°C° 1.2 mm 3 mps 765 mmHg 92%
    14:00 +8°C° 1.2 mm 3 mps 764 mmHg 93%
    15:00 +8°C° 1.2 mm 3 mps 764 mmHg 94%
    16:00 +8°C° 1.2 mm 3 mps 763 mmHg 95%
    17:00 +9°C° 1.2 mm 3 mps 763 mmHg 95%
    18:00 +9°C° 0.7 mm 3 mps 763 mmHg 95%
    19:00 +9°C° 0.7 mm 3 mps 763 mmHg 95%
    20:00 +9°C° 0.7 mm 3 mps 763 mmHg 95%
    21:00 +8°C° 0.2 mm 4 mps 763 mmHg 95%
    22:00 +8°C° 0.2 mm 4 mps 763 mmHg 95%
    23:00 +8°C° 0.2 mm 4 mps 763 mmHg 95%

    26 July, Friday

    Time Temperature Precipitation Wind Pressure Humidity
    00:00 +8°C° 0 mm 4 mps 763 mmHg 95%
    01:00 +8°C° 0 mm 4 mps 763 mmHg 95%
    02:00 +8°C° 0 mm 4 mps 763 mmHg 94%
    03:00 +8°C° 0 mm 4 mps 763 mmHg 94%
    04:00 +9°C° 0 mm 3 mps 763 mmHg 93%
    05:00 +9°C° 0 mm 3 mps 763 mmHg 93%
    06:00 +9°C° 0 mm 3 mps 764 mmHg 93%
    07:00 +9°C° 0 mm 3 mps 764 mmHg 92%
    08:00 +9°C° 0 mm 3 mps 765 mmHg 92%
    09:00 +9°C° 0 mm 3 mps 765 mmHg 89%
    10:00 +10°C° 0 mm 3 mps 766 mmHg 86%
    11:00 +11°C° 0 mm 3 mps 766 mmHg 84%
    12:00 +12°C° 0 mm 3 mps 766 mmHg 80%
    13:00 +13°C° 0 mm 3 mps 765 mmHg 76%
    14:00 +14°C° 0 mm 3 mps 765 mmHg 73%
    15:00 +14°C° 0 mm 2 mps 765 mmHg 75%
    16:00 +14°C° 0 mm 1 mps 765 mmHg 76%
    17:00 +12°C° 0 mm 0 mps 765 mmHg 78%
    18:00 +12°C° 0 mm 1 mps 766 mmHg 81%
    19:00 +12°C° 0 mm 1 mps 766 mmHg 84%
    20:00 +11°C° 0 mm 1 mps 767 mmHg 86%
    21:00 +11°C° 0 mm 1 mps 767 mmHg 87%
    22:00 +10°C° 0 mm 1 mps 767 mmHg 88%
    23:00 +10°C° 0 mm 1 mps 768 mmHg 88%

    27 July, Saturday

    Time Temperature Precipitation Wind Pressure Humidity
    00:00 +10°C° 0 mm 1 mps 768 mmHg 89%
    01:00 +10°C° 0 mm 1 mps 768 mmHg 90%
    02:00 +10°C° 0 mm 1 mps 768 mmHg 90%
    03:00 +9°C° 0 mm 1 mps 768 mmHg 91%
    04:00 +9°C° 0 mm 1 mps 768 mmHg 91%
    05:00 +9°C° 0 mm 1 mps 768 mmHg 92%
    06:00 +9°C° 0 mm 1 mps 768 mmHg 91%
    07:00 +9°C° 0 mm 1 mps 768 mmHg 90%
    08:00 +10°C° 0 mm 1 mps 769 mmHg 89%
    09:00 +11°C° 0 mm 1 mps 769 mmHg 82%
    10:00 +13°C° 0 mm 2 mps 769 mmHg 75%
    11:00 +15°C° 0 mm 2 mps 769 mmHg 68%
    12:00 +16°C° 0 mm 2 mps 768 mmHg 64%
    13:00 +16°C° 0 mm 2 mps 768 mmHg 59%
    14:00 +17°C° 0 mm 2 mps 767 mmHg 55%
    15:00 +16°C° 0 mm 2 mps 767 mmHg 58%
    16:00 +15°C° 0 mm 2 mps 766 mmHg 62%
    17:00 +15°C° 0 mm 1 mps 766 mmHg 65%
    18:00 +14°C° 0 mm 2 mps 766 mmHg 69%
    19:00 +13°C° 0 mm 2 mps 766 mmHg 73%
    20:00 +11°C° 0 mm 3 mps 766 mmHg 77%
    21:00 +10°C° 0 mm 3 mps 766 mmHg 79%
    22:00 +10°C° 0 mm 3 mps 766 mmHg 82%
    23:00 +9°C° 0 mm 3 mps 766 mmHg 85%

    28 July, Sunday

    Time Temperature Precipitation Wind Pressure Humidity
    00:00 +9°C° 0 mm 3 mps 766 mmHg 87%
    01:00 +9°C° 0 mm 3 mps 766 mmHg 89%
    02:00 +9°C° 0 mm 3 mps 766 mmHg 91%
    03:00 +9°C° 0 mm 2 mps 766 mmHg 92%
    04:00 +8°C° 0 mm 2 mps 765 mmHg 93%
    05:00 +8°C° 0 mm 2 mps 765 mmHg 94%
    06:00 +8°C° 0 mm 2 mps 765 mmHg 93%
    07:00 +9°C° 0 mm 2 mps 765 mmHg 93%
    08:00 +9°C° 0 mm 2 mps 766 mmHg 92%
    09:00 +11°C° 0 mm 3 mps 765 mmHg 85%
    10:00 +12°C° 0 mm 3 mps 765 mmHg 79%
    11:00 +14°C° 0 mm 3 mps 765 mmHg 72%
    12:00 +14°C° 0 mm 3 mps 764 mmHg 71%
    13:00 +16°C° 0 mm 3 mps 764 mmHg 71%
    14:00 +16°C° 0 mm 3 mps 763 mmHg 70%
    15:00 +14°C° 0 mm 3 mps 763 mmHg 74%
    16:00 +15°C° 0 mm 2 mps 762 mmHg 78%
    17:00 +14°C° 0 mm 2 mps 762 mmHg 82%
    18:00 +13°C° 0 mm 2 mps 762 mmHg 86%
    19:00 +12°C° 0 mm 2 mps 762 mmHg 89%
    20:00 +12°C° 0 mm 2 mps 762 mmHg 93%
    21:00 +10°C° 0 mm 2 mps 762 mmHg 93%
    22:00 +11°C° 0 mm 1 mps 762 mmHg 94%
    23:00 +11°C° 0 mm 1 mps 762 mmHg 94%
    Show more